Wind_Speed
23 24 25 26 26 27 27 27 27 27 27 27 27 27 28 28 28 28 27 26 26 26 26 26 27 28 29 29 31 33 34 34 33 33 32 32 31 32 33 34 34 34 34 34 32 29 27 25 25 25 26 28 29 29 28 28 27 25 23 21 19 17 16 16 15 14 13 12 11
20 23 25 25 26 26 27 26 27 27 28 28 28 29 30 30 30 30 29 28 28 27 26 25 26 27 28 29 30 32 33 34 33 33 33 33 33 33 34 34 34 35 35 34 31 28 26 25 26 27 29 30 30 30 29 28 27 25 22 20 19 17 16 15 15 14 13 12 10
17 20 23 25 26 26 26 26 27 28 29 30 30 30 31 31 31 31 30 29 29 28 26 25 26 27 29 29 30 31 32 33 33 32 32 33 33 34 34 35 35 34 34 33 31 28 27 27 29 30 32 32 32 32 31 29 26 24 22 20 19 17 16 15 14 13 12 11 9
15 18 21 24 25 27 27 27 28 29 31 31 31 30 30 30 30 30 30 29 28 27 26 26 26 27 28 29 29 30 31 31 32 32 32 32 33 34 34 34 33 33 32 31 30 29 29 30 32 33 34 35 34 33 32 29 26 23 21 20 18 17 16 15 14 13 12 10 9
14 16 19 22 24 26 27 28 29 30 31 31 30 29 29 29 29 29 29 28 27 27 27 27 26 27 28 29 29 29 29 30 31 31 31 32 33 33 33 32 31 30 30 30 29 30 31 32 33 34 35 35 35 34 32 28 25 22 21 19 18 17 16 15 14 13 12 10 9
12 15 18 20 22 24 26 27 28 29 30 29 28 28 27 28 28 28 28 27 28 28 28 27 26 26 27 27 28 28 29 30 30 31 31 32 32 31 30 29 28 29 29 29 30 32 32 32 32 33 33 34 33 32 29 26 24 23 21 20 19 18 17 16 14 13 12 11 9
10 13 16 19 21 23 24 26 27 28 29 28 27 27 28 28 28 28 27 27 27 27 27 27 26 26 26 27 27 28 29 30 30 31 31 31 31 30 29 28 28 29 29 30 32 32 32 31 30 29 30 30 29 27 25 24 24 24 23 22 20 19 17 15 14 13 11 10 8
10 12 14 17 20 22 23 25 26 27 27 27 27 28 29 29 29 28 27 26 26 26 26 26 26 26 26 27 27 28 28 29 30 30 30 30 29 29 29 29 29 29 30 31 32 32 30 29 27 27 27 27 26 25 24 25 25 25 25 23 21 18 16 15 13 11 9 8 6
12 12 13 15 18 20 22 24 26 26 26 26 26 27 28 28 28 26 25 25 24 25 26 26 27 26 26 26 27 28 28 29 29 29 28 29 29 29 29 29 29 30 30 31 31 30 28 26 25 25 25 26 26 26 26 26 26 26 25 22 19 17 15 12 10 9 7 6 5
14 13 13 14 17 19 21 23 24 25 24 24 24 25 26 26 25 25 24 23 24 24 26 27 27 27 26 26 27 27 28 28 28 28 28 29 29 29 29 29 29 29 30 29 28 27 26 25 24 24 25 26 27 27 27 26 26 24 22 19 17 15 12 10 9 7 6 6 5
16 15 15 15 16 18 20 22 22 22 22 22 22 23 23 23 23 23 23 23 24 25 26 27 28 28 27 27 27 27 27 26 27 27 28 28 28 28 28 28 28 29 28 27 26 26 25 25 25 26 27 28 28 27 25 24 23 21 19 17 15 13 11 10 8 7 6 6 5
18 17 16 16 17 17 19 20 20 20 21 21 21 21 21 21 22 22 23 23 24 26 27 27 28 28 28 28 27 26 26 26 26 26 27 27 27 27 27 27 27 27 26 26 25 25 26 26 27 28 29 28 27 25 23 21 20 19 17 15 14 12 11 9 8 7 6 6 5
18 18 17 17 16 17 17 17 18 19 20 20 20 20 20 20 21 22 23 24 25 26 27 27 28 28 28 27 27 27 27 26 26 26 26 26 26 27 27 26 26 26 25 25 25 26 27 28 29 30 29 27 25 23 21 20 18 17 16 15 13 12 11 10 9 8 7 7 6
18 18 17 16 15 15 15 15 17 18 19 19 19 19 19 20 22 22 23 24 25 26 27 27 27 27 27 27 27 27 27 27 26 25 25 25 26 26 26 25 25 25 25 25 26 27 29 30 30 30 29 26 23 21 19 18 17 17 16 15 14 13 12 11 10 9 9 8 7
17 17 15 14 13 13 13 14 16 17 18 18 19 19 20 21 22 23 23 24 25 26 26 27 27 28 28 27 27 27 27 26 25 25 24 25 25 26 25 25 24 25 26 27 28 29 29 30 30 29 27 25 23 21 19 18 17 16 16 15 15 14 14 13 12 11 10 9 8
16 15 13 12 12 12 13 15 15 16 17 18 19 19 20 21 22 23 23 24 24 25 26 27 28 28 28 27 27 26 26 26 26 25 25 26 26 26 25 25 25 25 26 28 29 29 29 29 28 27 25 24 22 21 20 19 18 17 16 16 16 15 15 14 13 12 11 10 10
15 13 12 12 12 13 14 15 15 16 16 17 18 19 20 21 22 23 24 24 25 26 27 28 28 28 28 27 27 26 26 26 26 26 26 27 27 27 26 26 25 25 26 28 28 29 28 27 26 25 24 23 22 21 20 19 18 18 17 17 16 16 15 15 14 12 11 11 11
15 14 13 13 14 15 15 15 15 16 17 17 18 19 20 21 22 23 24 25 25 26 27 27 26 27 27 27 26 26 26 26 26 26 27 27 27 27 27 26 25 25 26 27 27 27 27 25 25 24 24 23 22 22 20 20 19 18 17 17 16 15 14 13 12 11 10 11 11
15 14 14 14 15 16 16 16 16 16 17 18 18 19 20 20 21 22 23 23 24 25 25 25 24 24 25 25 25 25 25 25 25 26 26 26 27 27 27 27 26 25 26 26 26 26 26 25 24 24 24 23 22 21 20 19 19 18 16 15 14 13 12 11 10 10 10 10 11
14 14 14 14 15 15 16 16 16 17 17 18 18 19 19 20 20 21 21 21 21 22 23 22 22 22 22 23 23 23 23 24 24 25 25 26 26 27 27 27 26 26 26 25 25 25 25 24 24 24 23 22 21 20 20 19 17 16 15 13 12 11 10 9 8 8 8 8 8
11 12 12 13 14 14 15 15 16 17 17 18 18 19 19 19 19 19 19 19 19 20 20 21 21 21 21 22 22 22 22 23 23 24 25 25 26 27 27 27 27 26 26 25 24 24 24 24 24 23 22 22 21 20 19 17 16 14 12 11 9 8 8 7 6 6 6 6 6
9 9 10 11 12 13 14 15 16 16 17 18 19 19 19 18 18 18 18 18 19 19 20 20 21 21 21 21 22 23 23 24 24 25 25 26 26 26 27 27 27 26 25 24 24 24 24 24 23 22 22 21 20 19 17 16 14 12 11 9 8 7 6 5 4 4 4 5 6
7 7 8 9 11 12 13 14 15 16 17 18 18 19 18 18 18 18 19 19 20 20 20 20 21 21 22 23 24 25 25 26 26 26 26 26 26 26 27 27 26 25 24 24 24 24 24 23 22 21 21 20 19 17 16 14 13 12 10 9 7 6 5 4 3 4 5 6 7
6 7 8 9 10 12 13 14 15 16 17 18 18 18 19 19 20 20 20 20 21 21 21 21 21 22 23 24 25 26 27 27 27 26 26 26 26 26 26 26 25 25 24 24 23 23 23 22 22 21 19 18 17 16 15 14 12 11 9 8 6 5 4 3 4 5 6 7 8
7 8 9 11 12 13 14 15 16 17 17 18 18 19 19 20 21 22 22 21 21 21 21 22 22 23 24 25 25 26 26 27 27 26 26 26 26 26 26 25 24 24 23 22 21 21 21 21 20 20 19 17 16 15 14 13 11 9 7 6 5 4 4 4 5 6 7 8 9
11 12 13 14 15 16 16 17 17 18 18 19 19 20 20 21 21 22 22 22 21 21 22 22 23 23 24 25 25 25 25 25 25 26 26 26 26 26 25 24 23 23 21 20 19 19 19 19 18 18 17 16 15 14 12 10 9 7 6 4 4 4 4 5 5 6 6 7 8
15 16 16 16 17 18 19 19 19 20 20 20 20 20 21 21 21 22 22 22 22 22 22 23 23 24 24 24 24 24 24 24 25 25 26 26 26 25 25 24 23 21 20 18 17 17 17 16 16 15 15 14 12 11 10 8 7 5 4 3 2 2 2 3 3 4 5 6 7
18 18 19 20 20 21 21 21 21 21 21 21 21 21 21 21 22 22 23 23 23 23 23 24 24 24 24 23 24 24 25 25 26 26 26 26 26 25 24 23 22 20 19 17 16 16 15 14 13 12 11 11 10 8 7 6 5 4 2 1 1 0 0 1 2 3 5 6 7
20 20 21 22 22 23 23 23 23 23 23 23 23 23 23 22 23 23 24 24 24 24 24 24 24 23 23 24 25 25 26 26 27 26 26 25 24 24 23 21 20 19 17 16 16 15 14 13 11 11 10 9 8 7 6 5 5 4 3 3 2 2 2 3 4 5 6 6 6
20 22 23 24 24 24 24 24 24 24 24 24 25 24 24 24 24 23 24 24 23 23 23 23 24 24 24 25 26 26 27 27 26 26 25 24 23 22 21 20 19 18 16 16 15 14 13 12 11 10 9 8 8 7 7 6 5 5 5 4 4 4 4 5 6 6 6 5 4
21 22 23 24 25 25 25 25 25 25 25 25 26 25 25 24 24 23 23 23 23 23 23 23 24 25 26 26 26 27 26 26 25 24 24 23 23 22 21 20 19 17 17 16 16 14 13 11 10 9 9 8 8 7 7 6 6 5 5 5 6 6 6 6 6 5 4 4 3
21 22 23 24 25 25 25 25 26 26 26 26 26 25 25 24 24 23 23 23 23 23 24 25 25 26 26 26 26 26 26 25 24 24 24 24 24 23 22 20 19 18 17 17 16 14 13 11 10 9 8 8 7 7 7 6 6 6 6 6 7 7 6 6 5 4 3 3 3
21 22 23 23 24 24 25 25 26 26 26 26 25 25 25 25 24 24 24 23 23 24 25 25 26 26 26 26 26 25 25 25 25 25 25 24 24 23 22 21 19 18 17 17 15 14 12 11 9 8 7 7 7 7 6 6 7 7 7 7 7 6 5 5 4 3 2 2 1
21 22 22 23 23 23 24 24 25 25 25 25 25 25 25 24 24 23 23 23 23 24 25 25 26 26 26 26 25 25 25 25 25 25 25 25 24 23 22 20 19 18 16 15 14 13 12 10 9 8 7 7 7 7 7 7 7 7 7 7 7 6 5 4 3 2 1 0 1
21 22 22 22 23 23 23 23 24 24 24 24 24 24 23 23 23 23 23 23 24 24 24 25 25 25 25 25 25 25 26 26 26 25 25 24 23 22 21 20 18 16 14 13 13 12 11 9 8 8 8 8 8 8 8 8 8 8 7 6 6 5 4 3 2 2 2 2 3
20 21 22 22 22 22 22 22 23 24 24 24 23 23 23 23 23 23 23 23 24 24 24 24 24 24 24 24 25 25 26 26 25 24 23 22 22 21 20 18 16 14 13 12 12 11 10 9 9 8 8 8 8 8 8 8 8 7 7 6 5 4 4 3 3 4 4 4 4
19 20 21 21 21 21 22 22 23 24 24 24 23 23 23 23 23 22 23 23 24 24 24 24 24 24 24 25 25 25 25 24 24 23 21 20 20 19 18 17 15 13 12 12 12 12 11 9 9 8 9 9 9 8 8 7 7 6 6 5 5 4 4 4 5 5 6 6 6
19 20 21 21 22 22 22 23 24 24 24 24 24 24 24 23 23 22 22 23 24 24 23 23 23 24 24 24 24 24 23 22 22 21 20 18 18 17 17 16 15 13 13 12 12 11 10 9 9 9 9 10 9 8 8 7 6 6 5 5 5 5 5 5 6 6 7 7 7
20 21 22 22 23 23 23 24 24 24 24 24 24 23 23 23 23 22 22 23 24 24 23 23 23 23 23 22 22 22 21 20 19 18 17 17 16 16 16 16 15 14 12 11 11 10 10 9 9 9 10 10 10 9 8 7 6 6 5 5 5 5 6 6 6 7 7 8 8
21 22 22 23 23 24 24 24 23 23 23 23 23 23 23 23 22 22 22 22 23 23 23 23 22 22 21 20 20 20 19 17 16 16 15 15 14 14 14 15 14 13 12 11 10 10 10 9 9 9 9 10 10 9 8 7 7 6 6 6 6 5 5 5 6 7 7 8 8
21 22 22 22 23 23 23 23 23 22 22 23 23 22 22 22 22 22 22 22 22 22 22 22 21 20 19 19 18 18 17 16 15 14 14 13 13 13 13 13 13 13 11 10 9 9 9 8 7 7 8 8 9 9 9 8 7 6 6 5 5 5 4 5 6 6 7 8 8
Wind_Direction
226 225 223 221 220 220 220 221 223 224 225 224 223 223 223 223 223 224 223 221 218 215 214 213 213 211 208 206 206 207 207 208 210 211 210 209 209 210 212 212 211 209 205 201 201 204 209 216 224 226 221 212 209 209 210 212 214 215 215 214 214 213 213 211 209 206 204 202 202
227 226 224 222 222 221 221 222 223 224 225 227 226 226 225 225 225 225 224 222 221 220 217 214 213 210 207 206 207 208 208 208 209 210 210 210 210 212 212 212 211 208 205 203 204 207 212 218 224 222 215 207 204 205 208 210 212 213 213 212 211 210 208 206 203 200 197 194 193
228 226 224 222 221 220 220 221 223 225 226 227 228 228 227 226 226 225 224 223 224 222 218 213 212 210 208 207 208 208 208 207 208 209 209 209 210 211 212 212 210 207 204 203 204 208 214 220 223 218 209 202 200 201 204 208 210 210 209 209 207 204 201 198 195 191 186 183 181
234 228 223 221 220 219 220 221 223 226 227 228 229 228 227 226 225 225 226 225 224 221 217 213 210 209 209 207 207 207 207 207 207 207 207 207 208 210 211 210 207 204 202 202 205 211 216 219 217 210 203 198 197 199 202 204 204 204 204 204 201 197 192 188 183 178 173 169 168
245 234 227 224 223 223 223 225 226 227 229 229 228 227 226 226 226 226 226 224 221 218 216 213 209 207 207 206 205 204 204 204 205 205 205 205 206 207 207 206 203 201 201 203 208 213 215 212 206 201 197 196 196 198 200 201 198 196 196 195 190 185 180 175 170 167 166 166 169
258 245 236 231 229 228 227 228 229 229 230 229 226 224 224 225 225 223 222 221 219 217 214 211 207 204 203 203 202 201 201 201 202 203 203 202 203 203 202 201 201 202 205 208 212 212 209 202 196 194 194 194 196 197 197 194 190 188 186 181 176 173 170 167 166 168 172 174 177
276 256 245 239 235 232 231 231 231 231 230 227 225 223 223 224 223 222 220 218 216 214 210 207 204 201 198 198 197 197 198 199 200 201 202 201 202 201 201 201 203 206 209 211 211 208 202 195 191 189 191 192 192 191 188 185 182 179 175 170 167 168 169 169 172 174 176 176 176
296 272 256 247 241 237 236 235 233 231 228 226 224 224 224 224 223 221 219 216 213 208 204 202 200 198 195 194 194 195 195 196 198 199 200 202 202 203 204 204 205 208 210 210 207 201 194 190 188 187 187 187 184 180 176 176 175 172 169 166 166 168 171 172 173 173 171 169 169
307 289 271 257 249 244 241 238 234 230 228 226 226 225 225 224 221 218 215 212 208 204 200 198 198 196 193 190 191 191 193 195 196 197 200 204 205 206 206 205 205 206 206 205 201 194 189 186 185 185 183 180 174 170 169 170 170 169 167 166 166 167 168 166 163 160 157 158 163
314 300 283 268 258 251 245 240 235 231 229 228 228 227 225 222 218 214 210 206 202 198 195 194 195 193 190 187 188 190 192 194 197 200 203 206 207 206 205 204 203 202 201 199 194 189 185 183 181 178 175 171 167 166 166 169 170 168 166 164 162 159 155 151 147 147 148 156 167
318 306 293 279 267 257 247 238 233 230 229 228 228 226 223 218 214 210 205 200 197 194 191 191 190 189 187 185 186 189 192 195 199 203 205 205 205 204 202 201 201 199 197 193 189 185 182 179 176 171 167 165 164 164 166 168 168 164 159 155 151 146 142 141 143 148 154 164 178
318 309 297 285 272 259 246 236 230 227 226 226 225 222 219 214 208 203 199 195 193 192 191 190 188 187 186 186 188 191 195 198 201 202 202 201 200 199 198 197 197 196 193 189 185 181 178 175 171 167 164 163 163 163 164 163 161 155 148 142 139 137 137 142 148 153 160 166 174
317 308 297 284 271 256 243 232 226 223 222 222 221 217 212 208 204 199 195 192 190 190 190 189 189 189 188 189 192 195 197 199 199 199 198 197 195 194 193 192 192 191 188 184 181 177 174 172 169 167 164 162 161 161 160 157 153 145 138 134 134 137 142 147 150 153 157 160 165
313 305 293 280 265 250 236 226 221 219 217 216 215 211 205 201 200 198 195 191 189 188 188 187 189 191 192 194 195 196 197 197 196 194 193 191 190 189 188 188 188 186 183 179 176 173 172 170 169 167 165 162 159 157 154 151 145 139 136 136 141 146 150 152 154 155 158 162 169
308 299 287 273 257 241 229 221 216 213 211 208 206 204 200 197 196 196 194 191 190 190 189 187 187 190 194 196 195 195 195 193 191 188 185 184 184 184 184 183 182 179 176 173 172 172 171 170 169 167 165 161 156 152 148 145 141 140 142 146 151 154 156 157 160 163 167 174 184
300 290 278 263 246 233 223 216 213 210 206 202 200 198 196 193 192 192 191 190 191 191 189 187 186 188 191 193 193 192 190 188 185 182 180 178 178 179 178 176 174 172 170 169 168 169 169 169 168 167 164 159 153 148 145 143 144 148 151 155 158 160 162 165 168 173 180 189 202
290 280 268 253 238 227 220 215 213 210 204 199 197 196 193 190 188 188 188 189 189 187 186 185 186 186 186 187 188 186 184 182 180 178 176 175 174 173 171 169 167 166 166 166 166 165 165 165 165 163 160 155 150 146 146 148 152 155 159 161 164 167 170 173 177 183 191 203 217
279 271 261 248 235 225 219 217 212 206 202 198 196 193 190 187 185 184 184 186 185 183 181 181 182 183 183 182 181 181 180 178 177 175 174 172 170 168 166 165 164 164 165 166 165 165 164 160 158 155 152 149 147 147 150 154 157 160 163 166 168 172 176 180 186 193 203 215 227
268 259 251 241 231 223 217 213 207 201 198 197 193 189 186 183 181 180 179 180 180 179 178 176 177 177 177 177 176 175 175 175 173 171 170 168 166 165 163 163 163 164 165 166 165 164 162 156 152 149 147 146 147 150 155 158 160 162 165 167 171 176 181 188 195 204 215 226 234
256 245 237 230 224 217 210 205 200 196 194 191 187 183 181 179 178 176 173 173 174 174 173 171 169 168 169 170 169 169 168 169 167 165 163 162 161 161 162 162 163 164 165 164 162 160 157 153 149 147 147 148 150 154 158 160 162 163 165 169 174 181 189 196 204 214 224 233 241
246 234 226 220 215 208 201 197 195 191 186 182 178 176 175 173 171 170 169 168 167 166 165 163 161 160 160 160 160 159 158 159 159 158 157 157 157 159 161 161 162 162 162 160 158 155 152 150 148 148 150 152 155 157 159 161 161 163 167 173 180 188 194 202 209 218 230 241 252
237 226 217 210 205 199 193 189 186 182 178 174 170 168 166 165 163 163 161 160 158 156 154 153 152 152 151 151 151 150 150 151 152 153 153 154 154 156 158 159 159 158 156 154 152 151 150 149 150 152 154 155 157 159 160 161 162 166 171 177 182 187 193 201 211 227 244 255 263
223 214 205 196 190 184 179 174 171 168 166 163 160 159 157 155 154 153 152 150 149 147 145 144 144 145 145 146 147 147 147 147 147 149 150 150 150 151 153 154 154 152 150 149 149 149 149 150 152 154 156 157 158 159 161 163 166 169 172 175 178 182 190 203 223 243 254 261 265
189 183 177 170 165 160 156 153 151 150 149 149 148 148 147 146 146 145 144 142 141 140 139 139 139 141 142 144 145 146 145 144 144 145 146 147 147 147 148 149 148 148 147 148 149 151 152 152 153 155 157 158 159 160 162 164 166 168 169 170 174 180 194 216 236 250 257 263 268
147 146 144 140 137 135 134 133 132 132 133 134 136 136 135 135 137 138 137 137 137 137 137 137 138 139 141 142 143 144 144 143 142 142 142 143 144 145 145 145 145 145 146 147 150 152 154 155 155 156 157 158 159 160 161 162 162 163 164 167 174 190 211 232 247 258 267 274 277
125 125 123 122 121 120 119 119 119 119 121 122 123 123 124 127 130 131 131 131 133 134 134 134 136 137 139 140 140 140 141 142 143 143 142 142 142 143 143 142 141 141 142 144 147 151 153 155 156 156 156 156 156 155 154 153 154 156 161 171 188 212 234 252 266 276 282 283 278
112 112 113 115 112 110 110 111 112 112 113 114 114 115 118 121 123 124 125 126 128 129 130 131 132 134 136 137 138 138 139 141 143 144 143 142 141 140 139 139 138 138 138 139 142 146 150 152 154 154 153 151 148 146 144 143 145 150 159 175 200 234 263 278 284 281 273 262 251
105 107 108 108 106 105 106 107 107 107 108 109 111 112 114 116 117 118 119 121 123 124 124 126 129 131 134 135 137 139 140 141 142 142 142 141 140 139 138 137 136 134 134 136 138 141 143 145 147 145 142 138 135 132 131 130 131 131 130 127 113 79 8 245 238 234 229 223 219
103 105 106 105 103 104 105 106 106 106 108 109 110 111 112 112 112 113 115 117 118 119 120 123 127 131 133 134 137 139 139 139 140 140 140 139 139 138 137 135 132 131 131 132 133 134 135 136 136 134 130 126 121 116 111 107 104 102 101 101 104 115 140 170 187 194 195 195 195
101 104 104 104 104 104 105 106 107 109 110 111 111 111 110 109 109 110 112 114 115 118 122 127 130 132 132 134 136 136 136 137 138 139 139 138 136 134 131 128 127 127 129 129 129 129 129 128 125 121 117 111 105 99 94 94 96 101 109 115 123 134 148 159 165 168 171 176 181
98 101 102 103 103 104 106 108 110 111 112 112 112 112 111 110 110 112 114 117 120 124 129 133 133 132 132 134 134 134 135 137 138 139 137 134 130 126 124 123 123 125 127 126 126 126 125 121 116 110 105 99 94 90 90 93 100 108 116 124 131 139 147 152 156 158 160 165 170
97 99 101 102 103 104 107 109 111 112 113 113 113 113 114 114 116 119 122 126 128 131 133 133 132 131 132 133 133 135 136 137 137 135 132 129 125 123 122 123 124 125 125 125 124 122 120 116 111 104 98 92 89 87 88 95 105 115 122 129 136 142 147 151 152 152 153 156 164
96 98 99 100 102 105 107 110 111 113 113 114 115 116 117 120 122 125 127 130 131 131 131 131 131 131 132 133 134 135 136 135 134 131 129 126 125 124 124 124 123 123 123 123 121 120 118 115 111 103 94 86 84 84 89 100 112 123 131 135 139 143 143 141 139 140 143 155 189
97 98 99 100 103 105 108 110 111 113 114 114 116 118 120 122 123 125 126 127 129 130 130 131 132 133 134 136 136 135 133 132 130 129 127 127 127 126 125 123 122 122 122 122 120 120 119 116 111 101 90 83 83 87 97 109 119 128 134 136 137 135 133 128 123 116 96 2 316
99 100 101 103 105 107 109 110 112 113 113 113 115 117 119 121 121 122 124 126 128 128 129 131 132 134 135 136 136 134 131 129 128 128 127 128 127 126 124 122 121 122 123 123 122 121 119 115 106 94 85 83 86 93 103 115 123 128 130 131 128 122 114 102 82 53 24 4 347
102 103 104 105 107 108 110 111 112 112 111 111 112 113 115 117 119 121 124 127 128 128 128 129 131 132 132 132 131 130 129 128 128 128 128 128 127 125 122 120 120 122 123 123 122 120 115 108 97 85 79 82 89 98 108 118 123 126 126 123 115 104 88 69 50 36 25 13 0
103 105 106 106 107 108 109 110 110 108 107 108 109 111 113 115 117 121 125 128 128 127 127 128 129 129 129 129 129 129 129 130 130 130 129 129 127 123 121 119 119 120 122 121 119 116 110 101 89 79 76 82 91 101 112 119 123 123 120 112 99 83 67 50 38 29 21 13 4
103 105 106 105 106 106 107 107 107 106 106 107 110 112 114 116 117 120 125 128 127 126 126 127 127 128 129 129 129 129 130 131 132 132 130 128 125 122 120 119 119 120 120 120 117 113 107 98 86 78 77 82 90 99 108 115 118 115 107 94 80 65 52 39 29 20 13 7 2
103 104 105 105 105 105 105 104 104 105 107 110 112 114 116 118 119 122 126 129 130 129 127 126 126 126 127 127 128 129 130 132 132 131 129 125 122 120 119 119 119 119 119 118 116 113 109 101 91 82 79 81 85 89 93 98 99 95 87 75 64 54 43 32 21 11 4 359 354
103 104 105 104 104 104 103 103 104 107 110 112 113 115 117 119 122 125 129 131 132 131 129 127 126 125 125 125 126 128 129 130 131 129 127 125 122 121 120 119 118 118 117 116 116 116 113 108 97 85 77 75 75 74 74 75 76 75 71 63 56 48 37 25 14 5 358 353 347
103 103 103 102 103 103 104 104 106 109 112 113 114 116 119 122 125 128 130 131 131 131 129 128 126 125 124 124 125 126 128 129 129 129 128 128 127 126 125 123 121 120 118 116 117 117 117 113 100 84 72 68 65 62 59 59 62 64 62 57 49 42 31 18 8 1 356 351 345
Height
743 744 745 746 747 747 748 749 750 750 751 752 752 753 753 754 755 755 756 757 757 757 757 758 759 760 762 763 764 766 767 769 769 770 772 773 774 775 776 777 777 779 781 783 786 788 789 791 792 792 793 794 795 797 798 800 802 804 805 805 806 807 808 808 809 809 810 811 812
742 742 743 744 745 746 747 747 748 749 749 750 750 751 751 752 752 753 754 754 755 756 757 757 758 759 761 762 763 764 765 766 767 768 769 771 772 773 774 775 776 777 780 782 785 787 788 789 790 790 791 792 793 795 797 799 801 802 803 804 805 806 807 808 808 809 809 810 811
740 741 741 742 743 744 745 746 746 747 747 747 748 748 749 749 750 751 751 752 753 754 755 756 757 758 759 760 762 762 763 765 766 767 767 769 770 771 772 773 775 776 779 781 783 785 786 787 787 787 788 789 791 792 794 797 799 801 802 804 805 806 806 807 808 808 809 809 810
740 740 740 740 741 742 742 743 744 744 745 745 746 747 747 747 748 749 750 751 752 753 754 754 755 757 758 759 760 761 762 763 764 765 767 767 768 769 770 772 773 776 778 780 782 783 784 785 785 785 785 786 788 790 792 795 797 799 801 803 804 805 806 807 807 807 808 808 809
739 739 739 739 739 739 740 740 741 742 742 743 744 745 746 746 747 748 749 750 751 752 752 753 754 755 757 758 759 760 762 763 764 764 765 766 767 768 770 771 773 775 777 779 781 782 782 782 782 782 783 784 786 788 790 793 795 797 800 802 803 804 805 806 806 807 807 807 808
739 738 738 738 738 738 738 739 739 740 740 741 742 744 744 745 746 746 747 748 749 750 751 752 753 754 756 757 758 759 761 762 763 763 764 765 767 768 770 772 774 775 777 778 779 780 780 780 781 782 782 784 786 787 789 792 794 796 799 801 802 804 804 805 805 805 805 806 807
738 738 737 737 737 737 737 738 738 738 739 740 741 742 742 743 744 745 746 747 747 749 750 751 752 753 754 756 757 758 760 761 762 762 763 765 766 767 769 771 773 774 776 777 777 778 778 779 780 781 782 784 786 787 789 792 793 795 797 800 801 802 803 803 803 803 804 806 807
737 737 737 737 737 737 737 737 737 738 739 739 740 740 741 741 742 743 745 746 747 747 748 750 751 752 753 755 756 757 759 760 761 762 763 765 766 767 768 770 771 773 774 775 776 776 777 778 780 781 782 783 785 787 790 791 793 795 796 798 799 800 801 802 802 803 804 806 807
736 736 736 736 736 736 736 737 737 738 738 739 739 739 740 741 742 743 744 745 746 747 747 748 750 751 753 754 755 757 758 759 760 762 763 764 766 767 768 769 770 772 773 774 775 775 777 778 779 781 782 783 786 788 790 791 792 794 795 796 797 798 800 802 802 803 805 806 808
735 735 735 735 735 735 735 736 737 737 738 738 739 739 740 740 741 742 743 744 745 746 746 747 749 750 752 753 754 756 757 758 760 762 762 764 765 766 767 768 769 771 772 773 774 775 776 778 779 781 782 784 786 787 789 791 792 792 793 794 796 798 800 802 802 804 805 807 809
734 734 734 734 734 734 734 735 736 737 737 738 739 739 740 740 741 742 742 743 743 744 745 746 747 749 751 752 753 755 756 758 759 761 762 763 764 765 766 767 769 770 771 772 773 775 776 778 779 781 782 784 786 787 789 790 790 791 792 794 796 798 800 802 803 804 806 807 809
733 733 733 733 733 733 733 734 735 736 737 737 738 738 739 740 740 741 741 742 742 743 744 746 747 748 750 751 752 754 756 757 758 759 761 762 763 765 766 767 768 769 771 772 773 774 776 777 779 781 782 784 786 787 788 789 789 790 792 794 796 798 800 802 803 805 806 808 810
733 732 732 732 732 732 732 733 734 735 736 737 737 738 738 739 739 739 740 741 742 743 744 746 747 748 749 750 752 753 754 755 757 758 759 761 762 764 765 766 768 769 771 772 773 774 775 777 778 780 782 783 785 786 787 787 788 790 792 794 796 798 800 802 803 805 806 808 810
732 732 732 732 732 732 732 733 733 734 735 735 736 737 737 737 738 739 740 740 741 742 744 745 747 748 749 750 751 752 753 754 755 757 758 760 761 763 764 766 767 769 770 772 772 774 775 777 778 780 781 782 784 785 786 787 788 790 792 794 796 798 799 801 802 804 805 807 809
732 732 732 731 732 732 732 733 733 734 734 734 735 736 736 737 738 738 739 740 741 742 744 745 746 747 748 749 750 751 752 753 754 756 757 759 761 762 764 766 767 769 770 771 772 774 775 777 778 779 780 781 782 783 785 787 789 791 792 794 796 797 798 800 801 803 804 806 807
732 732 731 731 732 732 732 732 733 733 734 734 735 735 736 737 737 738 739 740 741 742 743 745 746 747 747 748 749 750 751 752 753 755 757 758 760 762 764 766 767 769 771 772 773 774 776 777 778 778 779 780 781 783 785 787 789 791 793 794 795 797 798 799 800 802 803 805 807
732 732 731 731 731 732 732 732 733 733 733 734 734 735 736 736 737 738 739 739 740 742 743 744 745 746 746 747 749 750 751 752 753 754 756 757 760 762 764 766 768 770 772 772 773 774 775 776 777 777 778 779 781 783 785 787 789 791 792 794 795 796 797 799 800 801 802 804 806
732 731 731 731 731 731 731 732 732 732 733 734 734 735 736 736 737 738 738 739 740 741 742 743 744 745 746 747 748 749 750 751 753 754 756 757 759 761 763 766 768 770 772 773 774 774 775 775 776 777 778 779 781 783 786 788 790 791 793 794 795 797 797 799 799 800 802 804 805
731 730 730 730 730 730 731 731 731 732 732 733 734 735 736 737 737 738 739 740 741 741 742 743 744 745 746 747 748 749 750 752 753 755 756 757 759 761 763 766 768 771 772 774 774 774 775 775 776 777 778 780 782 784 787 788 790 792 793 794 796 797 798 799 799 800 802 803 805
730 730 729 729 730 730 730 730 731 731 732 733 734 735 736 737 738 739 739 740 741 742 743 744 745 746 747 748 749 750 751 753 754 756 757 758 760 761 763 765 768 770 772 773 774 775 775 776 777 777 779 781 783 785 787 789 791 792 793 795 796 797 798 798 799 800 802 803 804
730 730 729 729 729 730 730 730 731 731 732 733 734 735 737 737 738 739 740 741 742 743 744 745 746 747 748 749 750 751 752 754 756 757 758 759 760 762 763 766 768 770 772 773 774 775 776 776 777 779 780 782 784 786 787 789 791 792 793 795 796 797 797 798 799 800 801 802 803
730 730 730 729 729 729 730 730 731 731 732 733 734 735 737 738 739 740 741 742 743 744 745 746 747 748 749 750 751 752 754 756 757 758 759 761 762 763 764 766 768 771 772 774 775 775 776 777 778 780 781 783 785 786 787 789 791 792 793 795 796 796 797 797 798 799 801 802 802
730 730 730 730 730 730 730 730 731 732 733 734 735 736 737 738 739 740 742 743 744 745 746 747 748 749 750 751 752 753 754 756 758 759 761 762 763 764 766 768 769 771 773 774 775 776 777 778 779 781 782 783 785 786 787 789 790 792 793 794 795 795 796 797 798 799 800 801 801
730 730 730 730 730 730 731 732 732 733 734 735 736 737 737 738 739 741 742 744 745 746 747 748 749 750 752 752 753 755 756 757 759 761 762 763 764 766 767 769 771 772 773 775 776 777 778 779 780 782 783 784 785 786 787 789 790 791 792 793 794 795 796 797 797 798 799 800 801
731 731 731 731 731 732 732 732 733 734 735 736 737 738 739 740 741 742 743 745 746 747 748 749 751 752 753 754 755 757 758 759 760 762 763 765 766 767 769 770 772 773 775 776 777 778 779 780 781 782 783 784 785 786 787 788 789 790 791 792 793 794 795 796 797 798 798 799 800
731 731 732 732 732 732 733 734 735 736 737 737 738 740 741 742 742 743 745 746 747 749 750 751 752 753 754 756 757 758 760 761 762 764 765 767 768 769 771 772 773 775 776 778 779 780 781 782 782 783 784 785 786 787 787 788 789 790 791 792 793 794 795 796 796 797 797 798 799
732 732 732 733 733 734 734 735 736 737 738 739 740 742 742 743 744 745 746 747 749 750 752 753 754 755 757 757 759 760 762 763 764 766 767 768 769 771 772 773 775 776 777 779 780 781 782 782 783 784 785 785 786 787 787 788 789 790 791 792 793 793 794 795 795 796 797 798 798
733 733 733 734 734 735 736 737 737 738 739 741 742 743 744 745 746 747 748 749 751 752 753 755 756 757 758 760 761 762 763 764 765 767 768 770 771 772 773 774 776 777 779 780 781 782 782 783 784 785 786 786 787 787 788 789 790 790 791 792 792 793 794 794 795 796 797 798 798
734 734 734 735 735 736 737 737 738 740 741 742 743 744 746 747 748 750 751 752 753 754 755 757 757 759 760 761 762 763 764 765 767 768 769 771 772 773 774 776 777 778 780 781 782 782 783 784 785 785 786 786 787 787 788 789 790 790 791 792 792 793 794 794 795 796 797 798 798
736 736 736 736 737 737 738 739 740 741 742 743 744 746 747 749 750 752 753 754 755 756 757 758 759 760 762 762 763 764 765 767 768 770 771 772 773 774 776 777 778 780 781 782 782 783 784 784 785 785 786 786 787 787 788 789 790 790 791 792 792 793 794 795 796 797 797 797 797
738 738 738 738 738 739 740 741 741 742 743 744 745 747 748 750 752 753 755 756 757 758 759 760 761 762 763 764 765 766 767 768 770 771 772 773 774 776 777 778 779 781 782 782 783 784 784 785 785 786 786 787 787 788 788 789 790 791 791 792 793 794 795 796 796 797 797 797 797
741 741 740 740 741 741 742 742 743 744 744 745 747 748 750 751 753 755 756 757 758 759 760 761 762 763 764 765 766 767 769 770 771 772 773 774 775 777 778 779 781 782 783 783 784 784 785 785 785 786 786 787 787 788 788 789 790 791 792 792 793 794 795 795 796 796 796 797 797
743 743 742 742 743 743 744 744 745 745 746 747 748 749 751 752 754 756 757 758 759 760 762 762 763 765 766 767 768 769 770 771 772 773 774 775 776 777 779 780 781 782 783 784 784 785 785 785 786 786 787 787 787 788 789 789 790 791 792 793 794 794 795 795 795 796 796 797 797
745 745 745 745 745 746 746 746 747 747 748 749 750 751 752 754 755 757 758 759 761 762 763 764 765 766 767 768 769 770 771 772 773 774 775 776 777 778 779 781 782 783 784 784 785 785 786 786 786 787 787 787 788 788 789 790 791 792 792 793 794 794 795 795 795 796 796 797 797
747 747 747 747 747 747 748 748 749 749 750 751 752 753 754 756 757 758 760 761 762 763 765 766 767 768 769 770 771 771 772 773 774 776 777 777 778 779 781 782 783 784 784 785 785 786 786 786 787 787 787 787 788 788 789 790 791 792 792 793 794 794 795 795 796 796 796 796 797
749 749 749 749 749 749 750 750 751 751 752 752 754 755 756 757 759 760 762 763 764 765 767 768 769 770 771 772 772 773 774 775 776 777 778 779 780 781 782 782 783 784 785 785 786 786 786 787 787 787 787 788 788 789 790 791 792 792 793 793 794 794 795 795 795 796 796 796 796
751 751 751 751 751 751 752 752 752 752 753 754 756 757 758 759 761 762 763 765 766 767 768 769 770 771 772 773 774 775 776 777 777 779 780 780 781 782 782 783 784 785 786 786 786 787 787 787 787 787 788 788 789 790 790 791 792 792 793 794 794 794 795 795 795 795 796 796 796
753 752 752 752 753 753 753 753 753 754 755 756 757 759 760 761 763 764 766 767 767 769 770 771 772 773 774 775 776 777 778 778 779 780 781 782 782 782 783 784 785 786 786 787 787 787 787 787 788 788 789 789 790 790 791 792 792 792 793 793 794 794 794 795 795 795 795 795 796
755 754 754 754 754 755 755 755 755 756 757 758 759 760 762 763 764 766 767 768 769 770 772 773 774 775 776 777 777 778 779 780 781 782 782 782 783 784 784 785 785 786 787 787 787 787 788 788 788 789 789 790 790 791 791 792 792 792 793 793 794 794 794 794 795 795 795 795 795
757 757 756 756 756 756 756 757 757 758 759 760 761 762 763 765 766 767 769 770 771 772 773 774 775 776 777 778 779 779 780 781 782 782 783 784 784 785 785 786 786 787 787 788 788 788 788 789 789 789 790 790 791 791 791 792 792 792 793 793 793 794 794 794 795 795 795 795 795
758 758 757 757 757 758 758 759 760 761 762 762 763 764 765 767 768 769 771 772 773 774 775 776 777 777 778 779 779 780 781 782 782 783 783 784 785 785 786 786 787 787 788 788 789 789 789 789 789 790 790 790 791 791 791 792 792 792 793 793 794 794 794 795 795 795 795 795 795